TimeCST,TemperatureF,Dew PointF,Humidity,Sea Level PressureIn,VisibilityMPH,Wind Direction,Wind SpeedMPH,Gust SpeedMPH,PrecipitationIn,Events,Conditions,WindDirDegrees,DateUTC
12:27 AM,24.8,21.2,86,29.83,1.5,SE,23.0,31.1,0.00,Snow,Light Snow,130,2013-03-04 06:27:00
12:33 AM,24.8,21.2,86,29.82,2.0,SE,23.0,31.1,0.00,Snow,Light Snow,130,2013-03-04 06:33:00
12:52 AM,24.1,21.9,91,29.86,4.0,SE,24.2,31.1,0.00,Snow,Light Snow,130,2013-03-04 06:52:00
12:56 AM,24.8,21.2,86,29.81,4.0,SE,24.2,31.1,0.00,Snow,Light Snow,130,2013-03-04 06:56:00
1:06 AM,24.8,21.2,86,29.81,3.0,SE,25.3,-,0.01,Snow,Light Snow,130,2013-03-04 07:06:00
1:20 AM,24.8,21.2,86,29.80,4.0,ESE,24.2,31.1,0.01,,Overcast,120,2013-03-04 07:20:00
1:31 AM,24.8,21.2,86,29.79,3.0,ESE,21.9,-,0.02,Rain,Light Freezing Rain,120,2013-03-04 07:31:00
1:52 AM,25.0,21.9,88,29.86,3.0,SE,21.9,29.9,0.03,,Overcast,140,2013-03-04 07:52:00
2:08 AM,24.8,21.2,86,29.81,1.8,SE,24.2,-,0.00,Snow,Light Snow,140,2013-03-04 08:08:00
2:35 AM,24.8,23.0,93,29.79,1.0,SE,23.0,31.1,0.01,Snow,Light Snow,130,2013-03-04 08:35:00
2:52 AM,25.0,23.0,92,29.83,1.2,ESE,21.9,-,0.01,Snow,Light Snow,120,2013-03-04 08:52:00
3:15 AM,24.8,21.2,86,29.76,2.0,ESE,24.2,31.1,0.00,Snow,Light Snow,120,2013-03-04 09:15:00
3:26 AM,24.8,21.2,86,29.77,3.0,ESE,24.2,-,0.00,Snow,Light Snow,120,2013-03-04 09:26:00
3:52 AM,25.0,21.9,88,29.81,5.0,SE,21.9,-,0.00,,Overcast,130,2013-03-04 09:52:00
5:52 AM,25.0,23.0,92,29.84,5.0,SE,20.7,-,N/A,,Overcast,130,2013-03-04 11:52:00
6:52 AM,25.0,23.0,92,29.85,5.0,SE,16.1,-,N/A,,Overcast,130,2013-03-04 12:52:00
7:52 AM,25.0,23.0,92,29.86,3.0,SE,16.1,-,N/A,,Overcast,130,2013-03-04 13:52:00
8:34 AM,24.8,23.0,93,29.81,2.5,SE,18.4,-,N/A,,Overcast,130,2013-03-04 14:34:00
8:52 AM,25.0,23.0,92,29.86,2.5,SE,17.3,-,N/A,,Overcast,130,2013-03-04 14:52:00
9:25 AM,26.6,24.8,93,29.81,1.8,SE,16.1,-,N/A,,Overcast,130,2013-03-04 15:25:00
9:41 AM,26.6,24.8,93,29.81,2.0,SE,18.4,-,N/A,,Overcast,130,2013-03-04 15:41:00
9:52 AM,26.1,24.1,92,29.87,2.0,SE,17.3,-,N/A,,Overcast,130,2013-03-04 15:52:00
9:59 AM,26.6,24.8,93,29.82,1.8,SE,17.3,-,N/A,,Overcast,130,2013-03-04 15:59:00
10:11 AM,26.6,24.8,93,29.82,2.0,SE,17.3,-,N/A,,Overcast,130,2013-03-04 16:11:00
10:52 AM,27.0,25.0,92,29.87,2.0,SE,16.1,-,N/A,,Overcast,130,2013-03-04 16:52:00
11:52 AM,27.0,25.0,92,29.88,2.0,SE,17.3,-,N/A,,Overcast,130,2013-03-04 17:52:00
12:52 PM,27.0,25.0,92,29.88,2.0,SE,17.3,-,N/A,,Overcast,140,2013-03-04 18:52:00
1:52 PM,27.0,26.1,96,29.88,2.0,SE,13.8,-,N/A,,Overcast,140,2013-03-04 19:52:00
2:44 PM,28.4,26.6,93,29.84,1.8,SE,11.5,-,N/A,,Overcast,130,2013-03-04 20:44:00
2:52 PM,28.0,26.1,92,29.89,1.8,SE,10.4,-,N/A,,Overcast,130,2013-03-04 20:52:00
3:52 PM,28.0,26.1,92,29.90,1.5,SE,11.5,-,N/A,,Overcast,130,2013-03-04 21:52:00
4:13 PM,28.4,26.6,93,29.84,1.2,SE,12.7,-,N/A,,Overcast,130,2013-03-04 22:13:00
4:52 PM,28.0,26.1,92,29.90,1.8,ESE,11.5,-,N/A,,Overcast,120,2013-03-04 22:52:00
5:39 PM,28.4,26.6,93,29.86,2.0,ESE,10.4,-,N/A,,Overcast,120,2013-03-04 23:39:00
5:52 PM,28.0,26.1,92,29.91,2.0,ESE,11.5,-,N/A,,Overcast,120,2013-03-04 23:52:00
6:21 PM,28.4,26.6,93,29.89,3.0,SE,9.2,-,N/A,,Overcast,140,2013-03-05 00:21:00
6:38 PM,28.4,26.6,93,29.91,2.5,SSE,6.9,-,N/A,,Overcast,150,2013-03-05 00:38:00
6:52 PM,28.9,27.0,92,29.98,2.0,South,3.5,-,N/A,,Overcast,190,2013-03-05 00:52:00
7:02 PM,28.4,26.6,93,29.93,1.8,South,5.8,-,0.00,Rain,Light Freezing Rain,180,2013-03-05 01:02:00
7:32 PM,28.4,26.6,93,29.93,1.8,SE,6.9,-,0.01,Snow,Light Snow,130,2013-03-05 01:32:00
7:52 PM,28.0,26.1,92,30.00,2.5,SE,5.8,-,0.01,,Overcast,130,2013-03-05 01:52:00
8:52 PM,28.0,26.1,92,30.01,2.5,SE,5.8,-,0.01,Snow,Light Snow,140,2013-03-05 02:52:00
9:03 PM,28.4,26.6,93,29.96,1.5,SSE,5.8,-,0.00,Snow,Light Snow,150,2013-03-05 03:03:00
9:38 PM,28.4,26.6,93,29.95,2.5,SSE,3.5,-,0.00,,Overcast,150,2013-03-05 03:38:00
9:52 PM,28.0,26.1,92,30.00,3.0,South,3.5,-,0.00,,Overcast,180,2013-03-05 03:52:00
10:29 PM,28.4,26.6,93,29.94,2.5,SE,3.5,-,N/A,,Overcast,140,2013-03-05 04:29:00
10:52 PM,28.0,26.1,92,29.97,2.5,SE,4.6,-,N/A,,Overcast,130,2013-03-05 04:52:00
11:52 PM,28.0,27.0,96,29.98,2.5,South,4.6,-,N/A,,Overcast,180,2013-03-05 05:52:00